User: anonymous   Login
Location: Sabalos
(43.2860°N, 0.1414°E)
Time: 22:29:00
(UTC+00:00)
Language:

ERS-1 Rocket - Orbit

View from above orbital plane
View from above orbital plane
View from above satellite
View from above satellite

Ground track
Ground track

The orbit data is extracted from the following two-line orbital elements,

1 21610U 91050F   20272.44745479 +.00000012 +00000-0 +17538-4 0  9993
2 21610 098.4568 340.6131 0002347 328.1833 042.4595 14.40914386532531
Epoch (UTC): 28 September 2020 10:44:20
Eccentricity: 0.0002347
inclination: 98.4568°
perigee height: 754 km
apogee height: 757 km
right ascension of ascending node: 340.6131°
argument of perigee: 328.1833°
revolutions per day: 14.40914386
mean anomaly at epoch: 42.4595°
orbit number at epoch: 53253

The dashed part of the orbit path shows where the satellite is in the earth's shadow,  

DLR